Date String (YYYY-MM-DD hh:mm:ss) UTC,Instrument flags,Ambient pressure (hPa),Sample flow (lpm),Bypass flow (lpm),Sample temperature (°C),Ambient temperature (°C),ASC tube jacket temperature (°C),LED temperature (°C),Box temperature (°C),Sample RH (%),Span deviation,Mass concentration (μg/m³),Mass concentration (μg/m³),Mass concentration (μg/m³)
DateTimeUTC,F1_M11,P_M11,Q1_M11,Q2_M11,T1_M11,T2_M11,T3_M11,T4_M11,T5_M11,U1_M11,ZSPAN_M11,X0_M11,X2_M11,X1_M11
2022-06-25 18:00:00,,0835.9,5.01,0.00,29.9,28.0,00.0,38.8,31.7,19.5,0000.0,0007.29,0002.25,0001.57
2022-06-25 18:01:00,,0835.8,4.99,0.00,29.9,28.2,00.0,38.8,31.7,19.6,0000.0,0008.05,0002.27,0001.59
2022-06-25 18:02:00,,0835.7,4.98,0.00,29.9,28.3,00.0,38.8,31.8,19.9,0000.0,0008.00,0002.24,0001.61
2022-06-25 18:03:00,,0835.8,5.01,0.00,29.9,28.4,00.0,38.8,31.7,19.9,0000.0,0008.50,0002.19,0001.60
2022-06-25 18:04:00,,0835.8,5.01,0.00,30.0,28.6,00.0,38.8,31.8,19.6,0000.0,0008.55,0002.17,0001.60
2022-06-25 18:05:00,,0835.8,4.99,0.00,30.0,28.7,00.0,38.8,31.8,19.7,0000.0,0008.56,0002.13,0001.61
2022-06-25 18:06:00,,0835.8,5.00,0.00,30.0,28.8,00.0,38.8,31.9,19.5,0000.0,0008.47,0002.07,0001.62
2022-06-25 18:07:00,,0835.7,5.00,0.00,30.0,28.8,00.0,38.8,31.9,19.5,0000.0,0008.46,0002.13,0001.65
2022-06-25 18:08:00,,0835.7,4.99,0.00,30.0,28.9,00.0,38.8,31.9,19.7,0000.0,0008.05,0002.11,0001.67
2022-06-25 18:09:00,,0835.7,5.01,0.00,30.0,29.0,00.0,38.8,32.0,19.5,0000.0,0007.44,0002.10,0001.68
2022-06-25 18:10:00,,0835.8,5.00,0.00,30.1,29.1,00.0,38.8,32.0,19.4,0000.0,0007.44,0002.12,0001.69
2022-06-25 18:11:00,,0835.8,5.01,0.00,30.1,29.1,00.0,38.9,32.0,19.3,0000.0,0007.11,0002.09,0001.69
2022-06-25 18:12:00,,0835.7,5.00,0.00,30.1,29.2,00.0,38.9,32.0,19.3,0000.0,0005.51,0002.09,0001.69
2022-06-25 18:13:00,,0835.7,4.99,0.00,30.1,29.2,00.0,38.9,32.1,19.5,0000.0,0005.63,0002.11,0001.69
2022-06-25 18:14:00,,0835.7,5.01,0.00,30.2,29.2,00.0,38.9,32.1,19.4,0000.0,0005.55,0002.15,0001.70
2022-06-25 18:15:00,,0835.7,5.00,0.00,30.2,29.3,00.0,38.9,32.1,19.3,0000.0,0005.97,0002.18,0001.72
2022-06-25 18:16:00,,0835.7,4.99,0.00,30.2,29.3,00.0,38.9,32.1,19.2,0000.0,0005.87,0002.20,0001.74
2022-06-25 18:17:00,,0835.6,5.01,0.00,30.2,29.3,00.0,39.0,32.1,19.2,0000.0,0005.79,0002.22,0001.75
2022-06-25 18:18:00,,0835.7,5.00,0.00,30.2,29.4,00.0,39.0,32.2,19.4,0000.0,0005.79,0002.23,0001.75
2022-06-25 18:19:00,,0835.7,4.98,0.00,30.3,29.4,00.0,39.0,32.2,19.2,0000.0,0005.84,0002.27,0001.75
2022-06-25 18:20:00,,0835.6,5.01,0.00,30.3,29.4,00.0,39.0,32.2,19.1,0000.0,0005.13,0002.31,0001.78
2022-06-25 18:21:00,,0835.6,4.99,0.00,30.3,29.4,00.0,39.0,32.2,19.2,0000.0,0005.09,0002.31,0001.80
2022-06-25 18:22:00,,0835.7,5.01,0.00,30.3,28.8,00.0,39.0,32.1,19.3,0000.0,0005.10,0002.32,0001.81
2022-06-25 18:23:00,,0835.7,5.01,0.00,30.2,27.8,00.0,38.9,31.8,19.7,0000.0,0005.32,0002.36,0001.81
2022-06-25 18:24:00,,0835.6,4.99,0.00,30.1,27.4,00.0,38.8,31.7,19.9,0000.0,0005.49,0002.38,0001.82
2022-06-25 18:25:00,,0835.7,5.00,0.00,30.0,27.4,00.0,38.8,31.6,19.9,0000.0,0005.71,0002.40,0001.83
2022-06-25 18:26:00,,0835.7,5.00,0.00,29.9,27.5,00.0,38.8,31.6,19.8,0000.0,0006.03,0002.40,0001.84
2022-06-25 18:27:00,,0835.6,5.00,0.00,29.9,27.7,00.0,38.8,31.6,19.7,0000.0,0006.28,0002.44,0001.86
2022-06-25 18:28:00,,0835.6,5.01,0.00,29.9,27.9,00.0,38.8,31.6,20.0,0000.0,0006.32,0002.47,0001.89
2022-06-25 18:29:00,,0835.7,5.01,0.00,29.9,28.0,00.0,38.8,31.6,20.1,0000.0,0006.39,0002.51,0001.91
2022-06-25 18:30:00,,0835.6,5.00,0.00,29.9,28.2,00.0,38.7,31.7,19.9,0000.0,0006.32,0002.50,0001.91
2022-06-25 18:31:00,,0835.7,4.99,0.00,29.9,28.3,00.0,38.7,31.7,19.9,0000.0,0006.12,0002.46,0001.90
2022-06-25 18:32:00,,0835.6,5.00,0.00,29.9,28.4,00.0,38.7,31.7,19.8,0000.0,0006.26,0002.54,0001.90
2022-06-25 18:33:00,,0835.6,5.00,0.00,29.9,28.6,00.0,38.7,31.8,19.8,0000.0,0007.21,0002.60,0001.91
2022-06-25 18:34:00,,0835.6,5.00,0.00,29.9,28.7,00.0,38.7,31.8,20.0,0000.0,0007.80,0002.61,0001.92
2022-06-25 18:35:00,,0835.6,5.00,0.00,29.9,28.7,00.0,38.7,31.8,19.8,0000.0,0007.90,0002.66,0001.93
2022-06-25 18:36:00,,0835.6,4.98,0.00,29.9,28.8,00.0,38.7,31.9,19.8,0000.0,0007.76,0002.69,0001.93
2022-06-25 18:37:00,,0835.6,5.00,0.00,30.0,28.9,00.0,38.8,31.9,19.9,0000.0,0007.70,0002.69,0001.91
2022-06-25 18:38:00,,0835.6,5.01,0.00,30.0,29.0,00.0,38.8,31.9,20.2,0000.0,0007.83,0002.75,0001.89
2022-06-25 18:39:00,,0835.6,5.01,0.00,30.0,29.0,00.0,38.8,32.0,20.1,0000.0,0007.86,0002.73,0001.88
2022-06-25 18:40:00,,0835.6,5.00,0.00,30.0,29.1,00.0,38.8,32.0,19.7,0000.0,0007.87,0002.73,0001.88
2022-06-25 18:41:00,,0835.6,4.99,0.00,30.1,29.1,00.0,38.8,32.0,19.7,0000.0,0007.90,0002.76,0001.90
2022-06-25 18:42:00,,0835.6,5.01,0.00,30.1,29.2,00.0,38.8,32.0,19.6,0000.0,0007.99,0002.80,0001.93
2022-06-25 18:43:00,,0835.6,5.00,0.00,30.1,29.2,00.0,38.9,32.1,19.6,0000.0,0007.95,0002.79,0001.95
2022-06-25 18:44:00,,0835.5,5.00,0.00,30.1,29.3,00.0,38.9,32.1,19.5,0000.0,0007.55,0002.78,0001.97
2022-06-25 18:45:00,,0835.6,5.00,0.00,30.2,29.3,00.0,38.9,32.1,19.4,0000.0,0006.70,0002.78,0001.99
2022-06-25 18:46:00,,0835.6,5.01,0.00,30.2,29.4,00.0,38.9,32.1,19.5,0000.0,0006.67,0002.81,0002.03
2022-06-25 18:47:00,,0835.6,4.99,0.00,30.2,29.4,00.0,38.9,32.2,19.7,0000.0,0006.67,0002.82,0002.07
2022-06-25 18:48:00,,0835.6,5.00,0.00,30.3,29.4,00.0,39.0,32.2,19.4,0000.0,0005.90,0002.85,0002.11
2022-06-25 18:49:00,,0835.6,5.01,0.00,30.3,29.0,00.0,38.9,32.1,19.5,0000.0,0006.13,0002.86,0002.17
2022-06-25 18:50:00,,0835.5,5.00,0.00,30.2,27.9,00.0,38.8,31.9,19.6,0000.0,0007.42,0002.90,0002.20
2022-06-25 18:51:00,,0835.5,5.00,0.00,30.1,27.5,00.0,38.8,31.7,19.9,0000.0,0007.38,0002.89,0002.21
2022-06-25 18:52:00,,0835.5,4.99,0.00,30.0,27.4,00.0,38.8,31.6,19.9,0000.0,0007.95,0002.88,0002.22
2022-06-25 18:53:00,,0835.5,5.00,0.00,29.9,27.5,00.0,38.8,31.5,19.8,0000.0,0008.05,0002.90,0002.26
2022-06-25 18:54:00,,0835.5,5.00,0.00,29.9,27.6,00.0,38.7,31.5,20.0,0000.0,0008.29,0002.93,0002.28
2022-06-25 18:55:00,,0835.5,5.01,0.00,29.8,27.8,00.0,38.7,31.6,20.1,0000.0,0008.38,0002.94,0002.28
2022-06-25 18:56:00,,0835.5,5.00,0.00,29.8,28.0,00.0,38.7,31.6,20.1,0000.0,0008.45,0002.99,0002.28
2022-06-25 18:57:00,,0835.5,4.99,0.00,29.8,28.1,00.0,38.7,31.6,20.0,0000.0,0008.35,0002.96,0002.27
2022-06-25 18:58:00,,0835.5,4.99,0.00,29.8,28.3,00.0,38.7,31.7,20.0,0000.0,0008.12,0002.93,0002.26
2022-06-25 18:59:00,,0835.5,5.00,0.00,29.8,28.4,00.0,38.7,31.7,19.9,0000.0,0008.30,0002.94,0002.26
